Terminal Aerodrome Forecast
Issued by NWS Denver/Boulder, CO

Home | Current Version | Previous Version | Text Only | Print | Product List | Glossary On
Versions: 1 2 3 4 5 6 7 8 9 10 11 12 13 14 15 16 17 18 19 20 21 22 23 24 25 26 27 28 29 30 31 32 33 34 35 36 37 38 39 40 41 42 43 44 45 46 47 48 49 50
000
FTUS45 KBOU 172201 AAB
TAFDEN
TAF AMD
KDEN 172201Z 1722/1824 VRB04KT P6SM FEW100 SCT120 SCT220
     FM172300 03007KT P6SM SCT100 SCT120 BKN170
     FM180200 11009KT P6SM FEW090 BKN150
     FM180400 15007KT P6SM FEW120 SCT200
     FM180600 19008KT P6SM SCT200
     FM180800 22008KT P6SM SCT200
     FM181700 34006KT P6SM FEW200
     FM182000 05007KT P6SM FEW200=

USA.gov is the U.S. government's official web portal to all federal, state and local government web resources and services.